Location: Labastide
(44.3501°N, 4.4041°E)
Time: 22:42:42
(UTC+00:00)

Daily predictions for brighter satellites

Satellite Brightness Start Highest point End
(mag) Time Altitude Azimuth Time Altitude Azimuth Time Altitude Azimuth
Cosmos 2344 4.2 16:29:01 10° WSW 16:36:23 57° NW 16:44:36 10° NE
Cosmos 2369 4.5 16:34:31 10° SSE 16:39:31 33° ESE 16:44:33 10° NE
ATLAS 5 CENTAUR R/B 2.5 16:37:23 10° NW 16:43:13 85° NE 16:49:55 10° SE
Okean-O 3.4 16:39:49 10° SE 16:43:39 29° ENE 16:47:30 10° N
Cosmos 1356 Rocket 3.8 16:40:52 10° SSE 16:44:48 42° E 16:48:50 10° NNE
PSLV R/B 4.0 16:43:11 10° NNE 16:47:26 79° ESE 16:51:38 10° S
Cosmos 2082 4.0 16:42:14 10° NNW 16:47:39 46° ENE 16:53:03 10° SE
ALOS 3.6 16:43:31 10° S 16:47:59 45° W 16:52:28 10° NNW
Cosmos 1697 Rocket 3.3 16:44:08 10° S 16:49:15 37° ESE 16:54:24 10° NE
PSLV R/B 4.2 16:47:55 10° WSW 16:50:12 30° S 16:52:28 10° SE
COBE Rocket 4.3 16:48:17 10° NNE 16:52:43 37° E 16:57:03 10° SSE
CZ-4B R/B 4.3 16:47:56 10° S 16:53:04 49° W 16:58:12 10° NNW
SMAP 3.1 16:48:52 10° SSE 16:53:26 62° ENE 16:58:04 10° N
Cosmos 2233 Rocket 4.2 16:47:36 10° N 16:53:56 79° W 17:00:11 10° S
TELKOM 3 4.1 16:53:20 10° WNW 16:55:25 38° SSW 16:57:25 10° SE
Meteor 2-20 4.4 16:51:39 10° S 16:57:43 74° E 17:03:52 10° NNE
Cosmos 2278 4.4 16:52:55 10° SSE 16:57:58 35° ESE 17:03:05 10° NE
Cosmos 1680 Rocket 4.1 16:55:34 10° SSE 17:00:15 35° ESE 17:04:58 10° NE
Lacrosse 4 Rocket 1.4 16:56:51 10° SSW 17:00:50 58° ESE 17:04:50 10° NE
CZ-4 R/B 2.7 16:58:34 10° ESE 17:01:35 20° ENE 17:04:34 10° NNE
Cosmos 1633 Rocket 3.6 17:00:38 10° N 17:04:43 36° ENE 17:08:47 10° SE
Okean O Rocket 3.7 17:02:15 10° SSW 17:06:11 32° W 17:10:08 10° NNW
Cosmos 1656 3.6 17:01:18 10° SSW 17:06:52 87° ESE 17:12:23 10° NNE
YAOGAN 6 3.6 17:09:14 10° SE 17:12:04 24° ENE 17:14:55 10° NNE
Cosmos 1151 Rocket 3.9 17:08:36 10° SSE 17:12:19 28° E 17:16:04 10° NNE
Sich 1 3.0 17:07:58 10° N 17:12:20 71° E 17:16:43 10° SSE
Cosmos 1328 Rocket 4.1 17:14:47 10° SSE 17:18:48 36° E 17:22:50 10° NNE
Cosmos 1666 Rocket 3.5 17:14:43 10° N 17:19:03 61° E 17:23:20 10° SSE
COSMO-SKYMED 1 3.2 17:16:57 10° NNE 17:20:58 35° E 17:24:56 10° SSE
Cosmos 1891 Rocket 4.5 17:14:47 10° N 17:21:09 69° E 17:27:18 10° SSE
AQUARIUS 4.4 17:17:00 10° S 17:21:28 76° WSW 17:26:00 10° NNW
Cosmos 1464 Rocket 3.9 17:15:29 10° N 17:21:38 69° E 17:27:43 10° SSE
APEX 3.7 17:22:24 10° S 17:25:31 29° ESE 17:26:26 25° E
Cosmos 923 Rocket 3.9 17:20:52 10° SSW 17:26:04 78° ESE 17:31:18 10° NNE
Cosmos 1862 3.2 17:23:22 10° N 17:27:20 66° E 17:31:18 10° SSE
Cosmos 1624 Rocket 4.4 17:26:17 10° N 17:31:20 40° ENE 17:36:20 10° SE
Cosmos 2056 Rocket 3.9 17:27:22 10° N 17:32:10 38° ENE 17:37:00 10° SE
Cosmos 1072 Rocket 4.5 17:26:05 10° N 17:32:16 89° ENE 17:38:28 10° S
USA 215 4.2 17:30:23 17° ENE 17:34:23 32° NNE 17:40:02 10° NW
Cosmos 397 4.3 17:31:36 10° NNW 17:35:41 72° NE 17:39:58 10° SE
BREEZE-M DEB (TANK) 2.8 17:35:44 10° WSW 17:41:48 55° SSE 17:43:08 31° E
CSL-04 Rocket 3.8 17:37:06 10° SE 17:42:11 47° ENE 17:47:15 10° N
NOSS 2-3 (E) 3.7 17:39:13 10° SW 17:43:33 87° WNW 17:47:11 19° NE
YAOGAN 1 2.8 17:41:21 10° SE 17:45:28 45° ENE 17:49:36 10° N
USA 229 4.5 17:40:36 10° WSW 17:46:54 46° NW 17:53:27 10° NNE
SeaSat 1 2.4 17:45:02 10° SSE 17:49:57 86° ENE 17:54:56 10° NNW
Cosmos 1470 Rocket 3.6 17:45:50 10° N 17:50:17 60° E 17:54:42 10° SSE
NOSS 3-1 (C) 4.3 17:45:19 10° WSW 17:50:41 43° NW 17:56:33 11° NNE
Meteor 2-11 Rocket 4.4 17:45:17 10° N 17:51:27 82° E 17:57:35 10° S
NOSS 3-1 (A) 3.8 17:46:19 10° SW 17:51:50 60° NW 17:57:20 14° NNE
SL-16 R/B 3.7 17:48:38 10° SE 17:50:59 18° ESE 17:50:59 18° ESE
NOSS 2-3 (D) 3.8 17:48:51 10° SW 17:53:12 78° NW 17:56:24 22° NNE
ERBS 4.0 17:50:51 10° W 17:53:41 25° NNW 17:54:56 20° N
Cosmos 2346 Rocket 4.4 17:48:01 10° S 17:54:12 71° E 18:00:21 10° NNE
Cosmos 1980 Rocket 2.1 17:49:02 10° SSW 17:54:38 68° ESE 17:58:46 19° NNE
Envisat 3.4 17:54:13 10° S 17:59:15 66° WSW 18:04:20 10° NNW
Cosmos 2322 Rocket 4.0 17:56:41 10° SE 17:57:52 14° SE 17:57:52 14° SE
Cosmos 2297 Rocket 4.3 17:56:01 10° NW 18:00:46 28° WSW 18:05:30 10° SSW
Cosmos 2227 Rocket 4.2 17:56:23 10° NW 18:01:15 30° WSW 18:06:06 10° SSW
SKYMED 2 3.8 18:04:51 10° N 18:09:12 71° WNW 18:13:30 10° SSW
Cosmos 1420 Rocket 4.4 18:09:39 10° N 18:13:54 40° NE 18:13:54 40° NE
GEOS 3 Rocket 4.3 18:13:44 21° NNE 18:17:07 52° NW 18:22:13 10° WSW
Cosmos 2263 Rocket 2.3 18:14:02 10° NNW 18:19:26 49° ENE 18:19:31 49° ENE
Cosmos 1452 Rocket 4.4 18:15:53 10° N 18:19:20 32° NNE 18:19:20 32° NNE
CENTAUR R/B 4.1 18:16:34 10° NNW 18:22:41 25° NNE 18:23:48 24° NE
Cosmos 1371 Rocket 4.3 18:17:36 10° NNW 18:22:46 67° WSW 18:27:52 10° S
Cosmos 158 Rocket 4.1 18:21:07 10° SSW 18:26:24 75° WNW 18:29:07 29° NNE
Cosmos 1697 Rocket 4.0 18:28:01 10° WSW 18:33:12 36° NW 18:37:52 13° N
CZ-4 R/B 2.9 18:32:30 10° SSW 18:36:22 38° W 18:40:11 10° NNW
Cosmos 1634 Rocket 3.8 18:32:41 10° N 18:38:55 85° E 18:45:05 10° S
Lacrosse 4 Rocket 3.8 18:37:10 10° W 18:39:52 17° NW 18:41:37 14° NNW
USA 238 DEB 4.3 18:33:28 10° NNW 18:40:01 40° NE 18:40:01 40° NE
USA 238 4.3 18:33:35 10° NNW 18:40:06 40° NE 18:40:06 40° NE
SL-8 R/B 4.2 18:36:57 10° SW 18:40:53 52° SSW 18:40:53 52° SSW
Ariane Rocket 3.6 18:43:46 44° N 18:43:46 44° N 18:47:14 10° N
ATLAS 3B R/B 4.1 18:38:36 10° NNW 18:42:46 21° NNE 18:42:46 21° NNE
Cosmos 2228 Rocket 3.5 18:39:15 10° SSW 18:43:04 61° SW 18:43:04 61° SW
NOSS 3-2 (A) 4.4 18:38:02 10° NNW 18:44:50 41° NE 18:44:50 41° NE
Cosmos 2142 Rocket 4.4 18:41:12 10° N 18:47:38 77° E 18:48:54 58° SSE
Meteor 1-26 Rocket 4.4 18:54:07 10° SSW 19:00:06 75° W 19:01:41 50° N
USA 215 3.6 19:17:45 55° N 19:17:45 55° N 19:23:06 10° NW
SL-16 R/B 3.9 19:30:37 10° SW 19:32:55 25° SW 19:32:55 25° SW
Cosmos 1980 Rocket 4.2 19:34:48 10° W 19:39:11 22° NW 19:40:34 21° NNW
Cosmos 2322 Rocket 4.4 19:38:35 10° SW 19:39:46 17° SW 19:39:46 17° SW
Cosmos 2263 Rocket 4.3 19:58:31 10° NW 20:01:16 22° WNW 20:01:16 22° WNW
CENTAUR R/B 4.3 20:07:04 10° NNW 20:10:59 33° NNW 20:10:59 33° NNW
